Lid_Strength_Index
-1 0 1 2 8 8 9 8 6 6 6 4 4 5 5 5 6 9 1 0 0 0 -0 -1 -0 -0 -1 -1 -1 -1 -1 -1 -1 -1 -1 -1 -1 -1 -1 -1 -1 -1 -1 -1 -1 -1 -1 -1 -1
0 1 2 4 9 10 10 6 7 6 5 4 4 4 5 5 3 3 2 0 0 0 -0 -1 -0 -0 -1 -0 -1 -1 -1 -1 -1 -1 -1 -1 -1 -1 -1 -1 -1 -1 -1 -1 -1 -1 -1 -1 -1
-0 0 4 6 8 10 9 7 6 5 4 4 5 3 4 5 3 3 1 0 -0 0 -0 -0 -0 -0 -0 -0 -1 -1 -1 -1 -1 -1 -1 -1 -1 -1 -1 -1 -1 -1 -1 -1 -1 -1 -1 -1 -1
1 2 3 8 9 7 7 6 5 5 4 4 4 5 3 2 2 1 0 0 0 -0 -0 1 0 -0 -0 -0 -1 -1 -0 -0 -0 -1 -1 -1 -1 -1 -1 -1 -1 -1 -1 -1 -1 -1 -1 -1 -1
2 3 7 8 8 7 5 5 5 5 5 4 4 5 5 2 1 1 1 0 1 0 -0 -0 1 -0 -0 -1 -1 -0 -0 -0 -0 -1 -1 -1 -1 -1 -1 -1 -1 -1 -1 -1 -1 -1 -1 -1 -1
5 4 8 9 8 6 5 4 5 5 5 4 5 5 5 2 2 1 0 0 -0 0 -0 -0 -0 -0 -0 -0 -0 -0 0 -0 -0 -0 -0 -0 -1 -0 -1 -1 -1 -1 -1 -1 -1 -1 -1 -1 -1
5 6 8 8 8 7 6 4 5 5 5 5 4 5 4 3 1 1 0 0 -0 -0 -0 -0 -1 -1 -0 0 0 1 0 0 -0 -0 -0 -0 -0 -0 -0 -1 -1 -1 -1 -1 -1 -0 -0 -0 -0
4 5 8 7 8 8 5 4 4 5 5 3 3 5 5 3 1 -0 1 1 -0 0 0 0 -0 -1 -1 -1 1 1 1 0 0 0 0 0 0 0 -0 -0 -1 -1 -1 -1 -1 -0 -0 -0 -0
3 8 9 8 8 7 4 6 4 3 4 3 3 3 3 2 0 -0 2 1 1 1 1 0 0 -0 -1 -0 -0 -0 -0 0 1 -0 0 1 -1 -1 -1 -0 -0 -1 -1 -0 -1 -1 -0 0 0
6 8 7 6 6 6 5 5 4 5 5 4 4 2 2 2 1 2 2 2 2 2 1 1 0 0 -0 -0 -1 -0 -1 -1 -1 -1 -1 -0 -0 -0 -0 -0 0 -0 -0 -0 -0 -1 -0 0 -0
6 8 6 5 5 5 5 5 4 5 6 4 4 4 3 3 2 2 2 2 2 1 1 0 0 0 0 0 -0 -0 -0 -0 -0 -0 -0 -0 -0 -0 -0 -0 -0 -0 -0 0 0 -0 -0 -0 -0
7 6 5 5 5 5 5 4 5 5 4 3 3 3 3 3 3 3 3 2 2 2 1 1 2 0 0 -0 0 -0 0 -0 -0 -0 -0 -0 -0 0 0 0 -0 -0 -0 -0 0 -0 0 0 -0
6 5 5 5 5 5 4 5 5 5 3 3 3 3 3 3 2 2 2 2 2 2 1 1 1 1 2 0 0 0 0 0 -0 -0 -0 -0 0 0 0 0 0 -0 -0 -0 0 0 0 0 0
5 5 5 5 5 5 5 5 5 4 3 3 3 3 3 3 3 3 3 2 2 1 1 1 1 0 2 2 0 0 -0 -0 -0 -0 -0 -0 -0 0 0 0 0 0 -0 0 0 1 0 0 0
5 7 6 6 5 5 5 6 6 4 3 4 4 4 4 4 4 5 4 3 2 1 1 1 0 0 0 0 0 0 0 -0 0 0 0 0 -0 -0 0 0 0 0 -0 0 1 1 1 1 0
7 6 9 6 5 5 5 9 5 4 4 5 4 4 4 5 5 5 4 4 3 3 1 1 0 0 0 0 0 0 -0 0 0 -0 -0 -0 -0 0 0 0 0 -0 0 0 1 1 2 1 1
7 10 9 8 6 6 6 8 5 4 4 5 4 4 5 6 5 5 4 4 4 3 3 3 2 2 0 0 0 2 3 3 2 1 -0 -0 -0 -0 -0 0 0 0 0 1 2 2 2 2 1
10 10 9 9 7 6 7 7 6 5 5 5 5 5 6 7 6 5 5 5 4 4 4 4 3 3 2 2 0 0 0 1 3 4 4 4 2 0 -0 0 0 1 1 2 2 2 3 2 3
8 9 9 8 6 7 8 7 7 5 5 5 5 6 7 7 6 6 6 5 5 5 5 4 4 4 4 5 5 4 3 1 1 1 3 3 3 4 1 0 0 1 2 2 2 3 3 3 3
8 9 9 7 6 7 8 8 6 6 5 5 6 7 7 7 7 7 6 6 5 5 5 5 5 4 4 4 4 4 3 4 1 1 1 2 3 3 3 3 1 2 2 2 3 3 4 4 4
8 9 9 9 7 7 8 9 8 8 8 7 7 7 7 7 8 8 7 6 5 6 5 6 5 4 4 4 4 4 4 4 4 2 2 0 1 1 2 3 4 3 2 2 2 3 4 5 4
10 7 8 9 10 13 8 15 10 8 10 9 9 8 8 8 8 8 7 7 6 6 5 5 5 6 6 5 5 6 6 7 5 5 3 1 0 0 0 2 2 4 3 3 2 2 3 3 5
9 7 8 9 10 11 11 13 10 8 11 10 9 9 9 8 8 8 8 7 7 6 6 6 6 6 6 5 5 6 6 6 5 4 3 3 1 0 0 0 1 4 4 3 3 2 2 2 4
6 8 9 9 10 15 12 12 12 10 10 10 9 9 9 9 8 8 7 7 7 7 7 6 6 7 6 6 6 6 7 6 6 5 5 4 3 2 0 0 1 2 3 3 3 2 2 2 2
8 10 16 16 16 16 10 12 11 9 8 9 10 10 9 8 8 8 8 8 8 8 7 7 8 8 7 7 7 7 6 6 6 6 5 5 4 2 1 1 1 1 2 2 3 3 3 3 3
9 10 15 20 19 16 11 14 13 10 9 9 9 9 9 9 8 8 8 9 9 8 8 8 8 8 8 7 7 6 6 6 6 6 6 5 4 2 1 1 1 0 0 1 1 2 3 3 2
10 12 9 14 13 16 13 11 11 11 11 10 10 10 9 9 9 9 9 8 9 8 8 7 8 8 7 7 6 6 6 6 6 6 4 3 2 1 1 1 1 1 1 1 2 2 2 2 2
9 8 14 13 21 20 14 13 13 13 12 11 11 10 9 9 10 10 9 9 9 8 8 7 7 8 7 6 6 6 6 5 4 4 3 1 1 0 1 1 1 1 1 1 2 2 2 2 2
10 11 11 11 14 20 19 15 10 11 10 11 10 10 10 11 10 10 10 10 9 8 8 8 7 7 6 6 6 6 5 4 3 2 1 1 1 1 1 1 1 2 3 2 2 3 2 2 2
9 11 11 17 17 15 16 17 8 9 10 10 10 10 10 10 10 10 10 10 9 9 8 7 6 6 6 7 6 5 4 4 3 1 1 1 2 1 1 2 3 3 3 3 3 4 3 4 4